This is the latest recevied weather packets stored in our database for station/object N9CQL. If no packets are shown the sender has not sent any weather packets the latest 1 day(s).
| Time | Temp. | Humidity | Pressure | Rain* | Wind** | Luminosity | Snow |
|---|---|---|---|---|---|---|---|
| 1778015063 | 13.89° C | 39% | 1007.6 hPa | 0 mm | 0 m/s | 148 W/m² | - |
| 1778014751 | 13.89° C | 37% | 1007.8 hPa | 0 mm | 0 m/s | 177 W/m² | - |
| 1778014449 | 13.89° C | 38% | 1007.6 hPa | 0 mm | 0 m/s | 133 W/m² | - |
| 1778014146 | 13.89° C | 40% | 1007.7 hPa | 0 mm | 0 m/s | 148 W/m² | - |
| 1778013843 | 13.33° C | 38% | 1007.8 hPa | 0 mm | 0 m/s | 138 W/m² | - |
| 1778013540 | 13.33° C | 37% | 1007.8 hPa | 0 mm | 0 m/s | 113 W/m² | - |
| 1778013237 | 13.33° C | 39% | 1008 hPa | 0 mm | 0 m/s | 107 W/m² | - |
| 1778012933 | 13.33° C | 41% | 1008 hPa | 0 mm | 0 m/s | 98 W/m² | - |
| 1778012629 | 13.33° C | 38% | 1008.1 hPa | 0 mm | 0 m/s | 101 W/m² | - |
| 1778012326 | 13.33° C | 38% | 1008.1 hPa | 0 mm | 0 m/s | 103 W/m² | - |
| 1778012023 | 13.33° C | 36% | 1008 hPa | 0 mm | 0 m/s | 108 W/m² | - |
| 1778011722 | 13.33° C | 36% | 1008.1 hPa | 0 mm | 0 m/s | 112 W/m² | - |
| 1778011418 | 13.33° C | 39% | 1008.2 hPa | 0 mm | 1.34 m/s, 352° | 116 W/m² | - |
| 1778011114 | 13.33° C | 38% | 1008 hPa | 0 mm | 0 m/s | 121 W/m² | - |
| 1778010811 | 13.33° C | 38% | 1007.8 hPa | 0 mm | 0 m/s | 127 W/m² | - |
| 1778010508 | 13.33° C | 39% | 1007.9 hPa | 0 mm | 0 m/s | 142 W/m² | - |
| 1778010205 | 13.89° C | 39% | 1008 hPa | 0 mm | 0 m/s | 163 W/m² | - |
| 1778009901 | 13.89° C | 39% | 1007.9 hPa | 0 mm | 0 m/s | 175 W/m² | - |
| 1778009599 | 13.89° C | 39% | 1008.1 hPa | 0 mm | 0 m/s | 189 W/m² | - |
| 1778009296 | 13.89° C | 40% | 1007.9 hPa | 0 mm | 0 m/s | 203 W/m² | - |
| 1778008994 | 13.89° C | 41% | 1008.1 hPa | 0 mm | 0 m/s | 217 W/m² | - |
| 1778008692 | 14.44° C | 41% | 1008.1 hPa | 0 mm | 0 m/s | 220 W/m² | - |
| 1778008390 | 13.89° C | 39% | 1008 hPa | 0 mm | 0 m/s | 224 W/m² | - |
| 1778008086 | 13.89° C | 43% | 1008.2 hPa | 0 mm | 0 m/s | 202 W/m² | - |
| 1778007782 | 13.89° C | 40% | 1008 hPa | 0 mm | 0 m/s | 202 W/m² | - |
* Rain latest hour (hover to see other rain measurements)
** Current wind speed in m/s (hover to see current wind gust speed)